Location: ??????
(41.3794°N, 22.5014°E)
Time: 08:12:50
(UTC+00:00)

Cosmos 2228 Rocket - Pass Details

Date: 30 November 2020
Orbit: 618 x 652 km, 82.5° (Epoch: 17 January)

Event Time Altitude Azimuth Distance (km) Brightness Sun altitude
Rises 17:02:41 0° 189° (S) 2,951 6.8 -22.2°
Reaches altitude 10° 17:04:56 10° 190° (S) 2,042 5.9 -22.6°
Maximum altitude 17:09:28 80° 277° (W) 658 3.1 -23.4°
Enters shadow 17:11:15 37° 0° (N) 1,000 4.0 -23.8°
